sat.trackr.live / text

‹ back to catalog

STARLINK-36485

NORAD 67312 · 2026-002H

PAYLOAD ACTIVE UNKNOWN

§ Identity

Operator
Country
US
Launch date
2026-01-04
Launch site
AFETR
Launch vehicle
Mass (kg)
RCS (m²)

Purposes: comms

External: N2YO · Heavens-Above · Gunter

§ Orbital elements

Epoch: 2026-05-24T23:57:10.395072Z

Period
94.27 min
Inclination
43.0039°
Eccentricity
0.0001249
Mean motion
15.27592912 rev/d
Perigee alt
482.2 km
Apogee alt
483.9 km
Semi-major
6,861.1 km
B*
5.5989e-4
RAAN
253.9356°
Arg perigee
281.3656°
Mean anomaly
78.7056°
Rev number
2,275

§ Raw data

STARLINK-364851 67312U 26002H   26144.99803698  .00015183  00000+0  55989-3 0  99942 67312  43.0039 253.9356 0001249 281.3656  78.7056 15.27592912 22752

JSON: /api/v1/satellites/67312 · /tle

For live sub-satellite position, see the globe view (requires WebGL).

§ Visibility from observer

Set your observer location to see the next 7 days of passes ≥ 10°. The values pass through the URL so the page stays shareable.

No JS? Fill the form by hand. The geolocation button needs JavaScript.